Location: Oberkirch
(48.5323°N, 8.0787°E)
Time: 23:13:55
(UTC+00:00)

O/OREOS (USA 219) - Visible Passes

Search period start: 14 March 2026 00:00
Search period end: 24 March 2026 00:00
Orbit: 576 x 599 km, 72.0° (Epoch: 14 March)

Date Brightness Start Highest point End Pass type
(mag) Time Alt. Az. Time Alt. Az. Time Alt. Az.
14 Mar ? 18:39:25 10° NW 18:43:30 42° WSW 18:47:33 10° S visible
15 Mar ? 18:47:04 10° NW 18:50:44 27° WSW 18:54:21 10° SSW visible
16 Mar ? 18:54:58 10° WNW 18:57:54 18° WSW 19:00:47 10° SW visible
17 Mar ? 19:03:35 10° WNW 19:04:59 11° W 19:06:23 10° WSW visible
